sat.trackr.live / text

‹ back to catalog

STARLINK-32841

NORAD 62865 · 2025-022M

PAYLOAD ACTIVE UNKNOWN

§ Identity

Operator
Country
US
Launch date
2025-02-01
Launch site
AFWTR
Launch vehicle
Mass (kg)
RCS (m²)

Purposes: comms

External: N2YO · Heavens-Above · Gunter

§ Orbital elements

Epoch: 2026-09-21T02:29:02.535648Z

Period
93.85 min
Inclination
53.1595°
Eccentricity
0.0001209
Mean motion
15.34402777 rev/d
Perigee alt
461.9 km
Apogee alt
463.5 km
Semi-major
6,840.8 km
B*
4.2830e-4
RAAN
298.7668°
Arg perigee
72.2376°
Mean anomaly
287.8759°
Rev number
9,185

§ Raw data

STARLINK-328411 62865U 25022M   26264.10350157  .00014123  00000+0  42830-3 0  99902 62865  53.1595 298.7668 0001209  72.2376 287.8759 15.34402777 91851

JSON: /api/v1/satellites/62865 · /tle

For live sub-satellite position, see the globe view (requires WebGL).

§ Visibility from observer

Set your observer location to see the next 7 days of passes ≥ 10°. The values pass through the URL so the page stays shareable.

No JS? Fill the form by hand. The geolocation button needs JavaScript.